Location: Newark
(44.1667°N, 8.2500°E)
Time: 04:46:51
(UTC+00:00)

Transit 4A - All Passes

Search period start: 15 December 2019 00:00
Search period end: 25 December 2019 00:00
Orbit: 870 x 975 km, 66.8° (Epoch: 14 December)

Date Brightness Start Highest point End Pass type
(mag) Time Alt. Az. Time Alt. Az. Time Alt. Az.
15 Dec - 00:31:14 10° NW 00:37:04 71° WSW 00:42:50 10° SSE night (unlit)
15 Dec - 13:54:57 10° SSE 13:59:23 21° ESE 14:03:45 10° ENE daylight
15 Dec - 15:39:00 10° SW 15:45:10 71° WNW 15:51:13 10° NNE daylight
15 Dec - 17:28:33 10° WNW 17:32:36 18° NW 17:36:36 10° N visible
15 Dec - 21:10:43 10° NNE 21:11:25 10° NNE 21:12:07 10° NNE night (unlit)
15 Dec - 22:54:30 10° NNW 22:59:47 33° NE 23:04:58 10° ESE night (unlit)
16 Dec - 00:40:43 10° NW 00:46:18 48° WSW 00:51:50 10° S night (unlit)
16 Dec - 14:03:10 10° SSE 14:08:29 31° ESE 14:13:41 10° NE daylight
16 Dec - 15:48:37 10° SW 15:54:36 51° NW 16:00:28 10° NNE daylight
16 Dec - 17:39:19 10° WNW 17:42:25 14° NNW 17:45:29 10° N visible
16 Dec - 21:18:49 10° N 21:21:21 13° NNE 21:23:51 10° NE night (unlit)
16 Dec - 23:03:41 10° NNW 23:09:19 45° NE 23:14:52 10° ESE night (unlit)
17 Dec - 00:50:22 10° NW 00:55:28 32° WSW 01:00:32 10° S night (unlit)
17 Dec - 14:11:49 10° S 14:17:39 45° ESE 14:23:21 10° NE daylight
17 Dec - 15:58:27 10° WSW 16:04:07 37° NW 16:09:39 10° NNE daylight
17 Dec - 17:50:33 10° NW 17:52:19 11° NNW 17:54:05 10° N visible
17 Dec - 21:27:38 10° N 21:31:12 16° NNE 21:34:43 10° ENE night (unlit)
17 Dec - 23:12:55 10° NNW 23:18:46 64° NE 23:24:30 10° SE night (unlit)
18 Dec - 01:00:16 10° WNW 01:04:33 22° WSW 01:08:49 10° SSW night (unlit)
18 Dec - 14:20:46 10° SSW 14:26:53 66° ESE 14:32:51 10° NE daylight
18 Dec - 16:08:32 10° W 16:13:42 28° NW 16:18:46 10° NNE daylight
18 Dec - 21:36:37 10° N 21:40:57 21° NE 21:45:15 10° E night (unlit)
18 Dec - 23:22:14 10° NNW 23:28:07 89° WSW 23:33:56 10° SSE night (unlit)
19 Dec - 01:10:44 10° WNW 01:13:34 14° WSW 01:16:24 10° SW night (unlit)
19 Dec - 12:47:04 10° SE 12:50:37 16° ESE 12:54:06 10° ENE daylight
19 Dec - 14:29:59 10° SSW 14:36:11 88° WNW 14:42:15 10° NNE daylight
19 Dec - 16:18:51 10° W 16:23:22 21° NW 16:27:50 10° N visible
19 Dec - 21:45:41 10° NNW 21:50:38 27° NE 21:55:31 10° E night (unlit)
19 Dec - 23:31:38 10° NW 23:37:24 62° WSW 23:43:06 10° SSE night (unlit)
20 Dec - 12:54:53 10° SSE 12:59:40 24° ESE 13:04:22 10° NE daylight
20 Dec - 14:39:27 10° SW 14:45:34 63° NW 14:51:32 10° NNE daylight
20 Dec - 16:29:25 10° WNW 16:33:08 16° NNW 16:36:48 10° N visible
20 Dec - 20:10:26 10° N 20:12:00 11° NNE 20:13:34 10° NE visible
20 Dec - 21:54:48 10° NNW 22:00:13 37° NE 22:05:33 10° ESE night (unlit)
20 Dec - 23:41:10 10° NW 23:46:36 41° WSW 23:52:00 10° S night (unlit)
21 Dec - 13:03:16 10° S 13:08:47 35° ESE 13:14:11 10° NE daylight
21 Dec - 14:49:10 10° WSW 14:55:01 45° NW 15:00:46 10° NNE daylight
21 Dec - 16:40:20 10° NW 16:42:59 13° NNW 16:45:37 10° N visible
21 Dec - 20:18:59 10° N 20:21:55 14° NNE 20:24:48 10° ENE visible
21 Dec - 22:04:00 10° NNW 22:09:43 51° NE 22:15:21 10° SE night (unlit)
21 Dec - 23:50:53 10° NW 23:55:45 28° WSW 00:00:34 10° SSW night (unlit)
22 Dec - 13:12:02 10° S 13:17:58 51° ESE 13:23:48 10° NE daylight
22 Dec - 14:59:05 10° WSW 15:04:33 33° NW 15:09:56 10° NNE daylight
22 Dec - 16:51:59 10° NNW 16:52:55 10° NNW 16:53:49 10° NNW visible
22 Dec - 20:27:52 10° N 20:31:43 18° NE 20:35:32 10° ENE visible
22 Dec - 22:13:16 10° NNW 22:19:08 73° ENE 22:24:56 10° SE night (unlit)
23 Dec - 00:00:56 10° WNW 00:04:48 19° WSW 00:08:39 10° SSW night (unlit)
23 Dec - 11:39:49 10° ESE 11:41:52 12° E 11:43:54 10° E daylight
23 Dec - 13:21:04 10° SSW 13:27:14 75° ESE 13:33:14 10° NE daylight
23 Dec - 15:09:15 10° W 15:14:11 25° NW 15:19:02 10° NNE daylight
23 Dec - 20:36:52 10° NNW 20:41:27 23° NE 20:45:58 10° E visible
23 Dec - 22:22:36 10° NW 22:28:27 79° WSW 22:34:15 10° SSE night (unlit)
24 Dec - 00:11:54 10° W 00:13:47 12° W 00:15:41 10° WSW night (unlit)
24 Dec - 11:46:49 10° SSE 11:50:52 18° ESE 11:54:52 10° ENE daylight
24 Dec - 13:30:24 10° SW 13:36:34 78° WNW 13:42:35 10° NNE daylight
24 Dec - 15:19:40 10° W 15:23:53 19° NW 15:28:04 10° N daylight
24 Dec - 20:45:58 10° NNW 20:51:05 30° NE 20:56:10 10° ESE visible
24 Dec - 22:32:04 10° NW 22:37:43 53° WSW 22:43:20 10° S night (unlit)
